Regional Weather Roundup
Issued by NWS

Home | Current Version | Previous Version | Graphics & Text | Print | Product List | Glossary On
Versions: 1 2 3 4 5 6 7 8 9 10 11 12 13 14 15 16 17 18 19 20 21 22 23 24 25 26 27 28 29 30 31 32 33 34 35 36 37 38 39 40 41 42 43 44 45 46 47 48 49 50
000
ASUS43 KMPX 281810
RWRMN
WEATHER ROUNDUP FOR MINNESOTA
NATIONAL WEATHER SERVICE TWIN CITIES/CHANHASSEN MN
100 PM CDT THU MAY 28 2015


NOTE: "FAIR" INDICATES FEW OR NO CLOUDS BELOW 12,000 FEET WITH NO
SIGNIFICANT WEATHER AND/OR OBSTRUCTIONS TO VISIBILITY. N/A MEANS
CURRENT SKY AND/OR WEATHER CONDITIONS ARE NOT AVAILABLE.

MNZ060>063-068>070-281900-
   Twin Cities Metro

CITY           SKY/WX    TMP DP  RH WIND       PRES   REMARKS
TWIN CITIES    MOSUNNY   82  53  36 SW13G23   30.03F
6HR MIN TEMP:  64; 6HR MAX TEMP:  82;

ST PAUL        SUNNY     83  54  36 S18       30.03F
CRYSTAL        SUNNY     83  53  35 S15G22    30.01F
BLAINE         PTSUNNY   84  54  34 SW10      30.02F
LAKEVILLE      MOSUNNY   79  55  44 S12G20    30.04F
EDEN PRAIRIE   SUNNY     82  57  42 SW17      30.02F
6HR MIN TEMP:  64; 6HR MAX TEMP:  82;

SOUTH ST PAUL  SUNNY     82  53  36 SW13G20   30.03F
LAKE ELMO      FAIR      81  55  41 S15G22    30.05F
$$
MNZ001>005-007-008-013>017-022>024-027-028-281900-
   Northwest Minnesota

CITY           SKY/WX    TMP DP  RH WIND       PRES   REMARKS
BEMIDJI        PTSUNNY   69  58  68 E5        29.92F
HALLOCK        PTSUNNY   70  63  78 S10       29.85F
ROSEAU         MOSUNNY   63  57  82 S9        29.89F
WARROAD        MOSUNNY   64  61  88 SW5       29.89F
THIEF RVR FALL CLOUDY    66  61  82 SE12      29.89F
CROOKSTON      MOSUNNY   72  63  73 SE12G17   29.88S
FOSSTON        CLOUDY    70  61  73 S13       29.89F
DETROIT LAKES  PTSUNNY   77  59  53 S18G25    29.92F
MOORHEAD       MOSUNNY   79  61  53 S21G28    29.86F
PARK RAPIDS    MOSUNNY   86  51  29 S26G37    29.92F
MAHNOMEN       FAIR      76  62  61 S25G33    29.88F
$$
MNZ006-009>011-018-025>026-281900-
   North Central Minnesota

CITY           SKY/WX    TMP DP  RH WIND       PRES   REMARKS
BAUDETTE       LGT RAIN  57  55  93 SE15      29.93S
FLAG ISLAND    DRIZZLE   55  54  94 CALM      29.91R
INTL FALLS     LGT RAIN  57  54  89 NW5       29.99S
6HR MIN TEMP:  51; 6HR MAX TEMP:  60; 6HR PCP:  0.08;

WASKISH        CLOUDY    59  55  88 CALM      29.96F
BIG FORK       CLOUDY    70  55  60 S8        29.96F
LONGVILLE      MOSUNNY   79  54  41 S15G23    29.94F
GRAND RAPIDS   PTSUNNY   73  54  49 S18       29.97F
CRANE LAKE     CLOUDY    61  55  82 CALM      30.02S
ORR            CLOUDY    64  52  63 SE5       29.97F
COOK           CLOUDY    68  52  56 SE10      29.99F
WALKER         MOCLDY    78  51  39 S17G28    29.91F
$$
MNZ012-019>021-037-281900-
   Northeast Minnesota

CITY           SKY/WX    TMP DP  RH WIND       PRES   REMARKS
DULUTH         PTSUNNY   50  44  80 SE14      30.07F
6HR MIN TEMP:  46; 6HR MAX TEMP:  51;

HIBBING        PTSUNNY   69  51  52 S9G17     30.00F
EVELETH        PTSUNNY   68  50  52 S9        30.02F
DULUTH HARBOR  CLOUDY    45  43  93 NE20      30.11F FOG
TWO HARBORS    PTSUNNY   55  48  76 NE9       30.07F
SILVER BAY     CLOUDY    48  45  87 NE10G18   30.09F
GRAND MARAIS     N/A     46  42  86 NE13      30.10F
G MARAIS ARPRT MOSUNNY   61  45  55 E9        30.09F
$$
MNZ029>031-032-039>041-046>048-054>057-064-281900-
   West Central Minnesota

CITY           SKY/WX    TMP DP  RH WIND       PRES   REMARKS
FERGUS FALLS   PTSUNNY   75  57  53 S24G31    29.92F
WHEATON        MOSUNNY   75  57  53 S20G29    29.93S
MORRIS         PTSUNNY   75  54  46 S25       29.94F
ALEXANDRIA     MOSUNNY   73  55  53 SW13      29.98F
ELBOW LAKE     FAIR      76  60  57 S26G32    29.94F
WADENA         MOSUNNY   79  52  38 S24G33    29.94F
GLENWOOD       PTSUNNY   79  55  44 S23G32    29.99F
APPLETON       PTSUNNY   73  55  53 S14G23    29.95F
BENSON         CLOUDY    75  52  43 W13G26    29.97F
ORTONVILLE     PTSUNNY   75  57  53 S21G29    29.93F
MADISON        CLOUDY    73  55  53 S15G22    29.95F
WILLMAR          N/A     81  54  39 SW17      30.00F
$$
MNZ033>034-036-042>043-049>051-058-059-281900-
   Central Minnesota

CITY           SKY/WX    TMP DP  RH WIND       PRES   REMARKS
ST CLOUD       MOSUNNY   81  53  37 SW23G30   30.00F
6HR MIN TEMP:  59; 6HR MAX TEMP:  81;

SAUK CENTRE    FAIR      78  53  41 SW17G28   29.99S
PAYNESVILLE    PTSUNNY   78  51  39 SE21G29   30.00F
AITKIN         PTSUNNY   79  59  50 S10       29.97F
PINE RIVER     MOSUNNY   81  54  39 S17G35    29.98F
BRAINERD       MOSUNNY   80  51  36 S21G33    29.98F
STAPLES        SUNNY     79  48  34 SW24G32   29.96F
LONG PRAIRIE   FAIR      75  52  43 S17G24    29.99F
LITTLE FALLS   MOSUNNY   81  46  30 S20G26    29.99S
LITCHFIELD     MOSUNNY   82  52  34 SW8       30.01S
BUFFALO        SUNNY     80  52  37 S12G22    30.03F
MAPLE LAKE     SUNNY     82  56  40 S9G22     30.02F
$$
MNZ037-044-045-052-053-281900-
   East Central Minnesota

CITY           SKY/WX    TMP DP  RH WIND       PRES   REMARKS
PRINCETON      MOSUNNY   84  55  37 S9G18     30.01F
MORA           MOSUNNY   79  48  34 SW16G26   30.02F
CAMBRIDGE      SUNNY     84  61  45 SW16G25   30.00S
RUSH CITY      SUNNY     82  51  34 SW12G20   30.02F
MOOSE LAKE     PTSUNNY   68  50  52 E5        30.01F
HINCKLEY       FAIR      81  59  47 S9G17     30.01F
CLOQUET        PTSUNNY   54  45  71 E10       30.06F
MCGREGOR       PTSUNNY   77  54  44 S13G18    29.99F
$$
MNZ071>073-080-081-089-090-097-098-281900-
   Southwest Minnesota

CITY           SKY/WX    TMP DP  RH WIND       PRES   REMARKS
MONTEVIDEO     CLOUDY    75  57  53 SW10G17   29.97F
GRANITE FALLS  PTSUNNY   81  50  34 S16G24    29.99F
CANBY          CLOUDY    70  60  70 S10       29.97F
MARSHALL       CLOUDY    81  52  36 S17G24    29.97F
REDWOOD FALLS  MOSUNNY   82  49  31 SW14      29.99F
OLIVIA         MOSUNNY   79  46  31 S20G26    29.99F
PIPESTONE      PTSUNNY   79  52  38 S21G28    29.99F
WINDOM         MOSUNNY   81  48  32 S13G24    30.03S
WORTHINGTON    MOSUNNY   79  48  34 S18G24    30.02F
JACKSON        MOSUNNY   81  50  34 S16G25    30.05S
TRACY          PTSUNNY   82  50  32 SW17G24   29.99F
SLAYTON        MOSUNNY   79  47  31 S17G23    30.01F
$$
MNZ065>067-074>077-082>085-091>093-281900-
   South Central Minnesota

CITY           SKY/WX    TMP DP  RH WIND       PRES   REMARKS
MANKATO        MOSUNNY   81  55  41 S16G25    30.04F
NEW ULM        MOSUNNY   81  52  36 S17G24    30.01F
FAIRMONT       MOSUNNY   79  54  41 S22       30.04S
GLENCOE        MOSUNNY   82  58  43 S12G22    30.02F
FARIBAULT      MOSUNNY   81  55  41 S9G20     30.06F
OWATONNA       MOSUNNY   81  54  39 S18       30.06F
WASECA         MOSUNNY   79  54  41 S17G26    30.06F
ALBERT LEA     MOSUNNY   81  54  39 S13G20    30.07F
$$
MNZ078>079-086>088-094>096-281900-
   Southeast Minnesota

CITY           SKY/WX    TMP DP  RH WIND       PRES   REMARKS
ROCHESTER      MOSUNNY   79  57  46 S21       30.10F
6HR MIN TEMP:  61; 6HR MAX TEMP:  79;

RED WING         N/A     82  52  34 SW12G17   30.05S
STANTON        SUNNY     81  53  37 S13G22    30.04F
DODGE CENTER   SUNNY     81  55  41 S18G29    30.08F
WINONA         SUNNY     81  57  44 SW8       30.08F
AUSTIN         MOSUNNY   77  57  50 S14G21    30.08F
PRESTON        MOSUNNY   77  55  45 S20       30.11F
$$
ABBREVIATIONS USED IN REMARKS
   TC - TEMPERATURES IN CELSIUS
  WCI - WIND CHILL INDEX
   HX - HEAT INDEX
  VSB - VISIBILITY
$$



USA.gov is the U.S. government's official web portal to all federal, state and local government web resources and services.